Regional Weather Roundup
Issued by NWS Kansas City/Pleasant Hill, MO

Home | Current Version | Previous Version | Graphics & Text | Print | Product List | Glossary Off
Versions: 1 2 3 4 5 6 7 8 9 10 11 12 13 14 15 16 17 18 19 20 21 22 23 24 25 26 27 28 29 30 31 32 33 34 35 36 37 38 39 40 41 42 43 44 45 46 47 48 49 50

000
ASUS43 KEAX 181004
RWREAX

WEATHER ROUNDUP FOR EASTERN KANSAS AND NORTHWEST MISSOURI
NATIONAL WEATHER SERVICE KANSAS CITY/PLEASANT HILL MO
500 AM CDT FRI APR 18 2014

KSZ040-057-103>105-MOZ028-029-037-043-181100-
...KANSAS CITY METROPOLITAN AREA...

CITY           SKY/WX    TMP DP  RH WIND       PRES   REMARKS
K.C. INTL      PTCLDY    37  32  82 CALM      30.27S
K.C. DOWNTOWN  CLEAR     38  34  85 CALM      30.28S
LEES SUMMIT    CLEAR     39  34  82 SE3       30.29R
OLATHE - IXD   CLEAR     32  29  88 CALM      30.28S FOG
OLATHE - OJC   CLEAR     34  31  88 CALM      30.27R FOG
LAWRENCE       CLEAR     29  27  92 CALM      30.28S FOG

$$

MOZ001>008-011>017-020>025-030>033-038>040-044>046-053-054-181100-
...NORTHERN AND CENTRAL MISSOURI...

CITY           SKY/WX    TMP DP  RH WIND       PRES   REMARKS
ST. JOSEPH     CLEAR     30  27  88 CALM      30.28S FOG
MOSBY          FAIR      32  32 100 CALM      30.29R FOG
WHITEMAN AFB   NOT AVBL
CLINTON        NOT AVBL
SEDALIA        CLEAR     39  37  92 CALM      30.30R FOG
WARSAW         NOT AVBL
MARSHALL         N/A     39  37  93 CALM      30.30R FOG
CHILLICOTHE      N/A     31  28  89 CALM      30.31R
MOBERLY        CLEAR     36  32  87 CALM      30.30R FOG
KIRKSVILLE     FOG       31  29  92 CALM      30.30R VSB 1/4

$$

MOZ041-047>049-056>058-063>065-088>090-097-181100-
...EASTERN AND SOUTHERN MISSOURI...

CITY           SKY/WX    TMP DP  RH WIND       PRES   REMARKS
ST. LOUIS INTL PTCLDY    47  38  71 N5        30.29R
SPIRIT OF STL  CLEAR     42  38  85 CALM      30.28R
COLUMBIA       CLEAR     40  38  93 N6        30.28S
JEFFERSON CITY CLEAR     44  39  82 NW6       30.28S
MEXICO         CLEAR    N/A N/A N/A CALM      30.29R HAZE
HANNIBAL       CLEAR     41  34  75 NW3       30.30R
ROLLA          CLOUDY    41  38  89 N6        30.25S
LEBANON        CLEAR     43  37  81 NE3       30.26R
OSAGE BEACH    CLOUDY    43  36  75 CALM      30.29R
SPRINGFIELD    CLEAR     43  38  82 NE5       30.25R
BRANSON        CLOUDY    46  41  81 N3        30.24S
NEVADA         CLEAR     36  36 100 N3        30.28S FOG
JOPLIN         MOCLDY    41  39  93 N3        30.26S
WEST PLAINS    CLOUDY    48  40  73 N6        30.26R

$$

IAZ060-094-KSZ022-034>040-054-083-096-NEZ052-066-093-181100-
...KANSAS...SOUTHEAST NEBRASKA AND IOWA...

CITY           SKY/WX    TMP DP  RH WIND       PRES   REMARKS
TOPEKA         CLEAR     35  31  85 CALM      30.28S FOG
MANHATTAN      CLOUDY    31  29  92 CALM      30.26S FOG
EMPORIA        CLEAR     29  28  96 SE3       30.26S FOG
CHANUTE        CLEAR     32  32 100 CALM      30.27S FOG
WICHITA        CLEAR     34  31  88 CALM      30.25S FOG
OMAHA          PTCLDY    32  27  81 CALM      30.27R
LINCOLN        CLEAR     35  26  69 SE6       30.25F WCI  30
FALLS CITY     CLEAR     34  29  82 CALM      30.27R
LAMONI         CLEAR     31  28  89 NE7       30.28R FOG     WCI  24
DES MOINES     CLEAR     35  29  78 E5        30.31R WCI  31

$$




USA.gov is the U.S. government's official web portal to all federal, state and local government web resources and services.